Weather History for KDLN - July, 2014

Change the Weather History Date:

Monday, July 7, 2014

  Actual Average Record
Temperature  
Mean Temperature 68 °F 64 °F  
Max Temperature 84 °F 81 °F 97 °F (1985)
Min Temperature 52 °F 49 °F 34 °F (1977)
Degree Days  
Heating Degree Days 0    
Month to date heating degree days 6  
Since 1 June heating degree days 256  
Since 1 July heating degree days 6  
Cooling Degree Days 3    
Month to date cooling degree days 28  
Year to date cooling degree days 28  
Since 1 June cooling degree days 28  
Growing Degree Days 17 (Base 50)    
Moisture  
Dew Point 43 °F    
Average Humidity 45    
Maximum Humidity 66    
Minimum Humidity 23    
Precipitation  
Precipitation 0.00 in 0.04 in 0.31 in (1969)
Month to date precipitation 0.00 0.27  
Year to date precipitation 5.46 6.31  
Snow  
Snow 0.00 in - - ()
Snow Depth 0.00 in    
Sea Level Pressure  
Sea Level Pressure 30.01 in    
Wind  
Wind Speed 7 mph (ENE)    
Max Wind Speed 17 mph    
Max Gust Speed 20 mph    
Visibility 10 miles    
Events      
T = Trace of Precipitation, MM = Missing Value Source: NWS Daily Summary

Daily Weather History Graph

Daily Weather History Graph

Search for Another Location

Airport or City:

Trip Planner

Search our weather history database for the weather conditions in past years. The results will help you decide how hot, cold, wet, or windy it might be!

Date:

Astronomy

Jul. 07, 2014 Rise Set
Actual Time 5:50 AM MDT 9:19 PM MDT
Civil Twilight 5:13 AM MDT 9:56 PM MDT
Nautical Twilight 4:24 AM MDT 10:45 PM MDT
Astronomical Twilight 3:21 AM MDT 11:48 PM MDT
Moon 4:19 PM MDT (7/7) 1:54 AM MDT (7/7)
Length of Visible Light 16h 43m
Length of Day
15h 29m
Waxing Gibbous, 73% of the Moon is Illuminated
Jul 7
Waxing Gibbous
Jul 12
Full
Jul 18
Last Quarter
Jul 26
New
Aug 3
First Quarter

Hourly Weather History & Observations

Time (MDT) Temp. Dew Point Humidity Pressure Visibility Wind Dir Wind Speed Gust Speed Precip Events Conditions
12:53 AM 66.9 °F 39.9 °F 37% 29.95 in 10.0 mi South 3.5 mph - N/A   Clear
1:53 AM 64.9 °F 41.0 °F 42% 29.95 in 10.0 mi South 6.9 mph - N/A   Clear
2:53 AM 57.0 °F 41.0 °F 55% 29.99 in 10.0 mi SE 8.1 mph - N/A   Clear
3:53 AM 57.9 °F 41.0 °F 53% 29.99 in 10.0 mi Calm Calm - N/A   Clear
4:53 AM 54.0 °F 42.1 °F 64% 30.01 in 10.0 mi SW 5.8 mph - N/A   Clear
5:53 AM 52.0 °F 39.0 °F 61% 30.03 in 10.0 mi SSE 6.9 mph - N/A   Clear
6:53 AM 59.0 °F 41.0 °F 51% 30.04 in 10.0 mi SE 5.8 mph - N/A   Clear
7:53 AM 66.0 °F 41.0 °F 40% 30.04 in 10.0 mi ESE 3.5 mph - N/A   Clear
8:53 AM 68.0 °F 46.0 °F 45% 30.06 in 10.0 mi NW 3.5 mph - N/A   Clear
9:53 AM 71.1 °F 43.0 °F 36% 30.06 in 10.0 mi East 5.8 mph - N/A   Clear
10:53 AM 75.0 °F 42.1 °F 31% 30.06 in 10.0 mi NNW 10.4 mph - N/A   Clear
11:53 AM 75.9 °F 41.0 °F 29% 30.05 in 10.0 mi Variable 4.6 mph - N/A   Clear
12:53 PM 78.1 °F 42.1 °F 28% 30.04 in 10.0 mi ENE 8.1 mph - N/A   Clear
1:53 PM 79.0 °F 43.0 °F 28% 30.04 in 10.0 mi Variable 3.5 mph - N/A   Clear
2:53 PM 81.0 °F 42.1 °F 25% 30.04 in 10.0 mi Variable 4.6 mph - N/A   Clear
3:53 PM 80.1 °F 44.1 °F 28% 30.02 in 10.0 mi Variable 5.8 mph - N/A   Clear
4:53 PM 82.9 °F 41.0 °F 23% 30.01 in 10.0 mi NNE 9.2 mph - N/A   Clear
5:53 PM 82.9 °F 41.0 °F 23% 30.00 in 10.0 mi North 11.5 mph - N/A   Clear
6:53 PM 82.0 °F 41.0 °F 23% 29.97 in 10.0 mi NNE 12.7 mph - N/A   Clear
7:53 PM 77.0 °F 48.0 °F 36% 29.95 in 10.0 mi NNE 15.0 mph - N/A   Clear
8:53 PM 72.0 °F 48.9 °F 44% 29.97 in 10.0 mi NNE 11.5 mph - N/A   Clear
9:53 PM 66.9 °F 48.0 °F 51% 29.98 in 10.0 mi NE 12.7 mph - N/A   Clear
10:53 PM 64.9 °F 46.0 °F 50% 30.00 in 10.0 mi East 9.2 mph - N/A   Clear
11:53 PM 61.0 °F 46.9 °F 60% 30.02 in 10.0 mi East 8.1 mph - N/A   Clear